Year,Month,Day,Hour,Minute,Value (Times are PST for temperature in C)
2014,05,03,00,00,11.70
2014,05,03,00,01,11.70
2014,05,03,00,02,11.60
2014,05,03,00,03,11.60
2014,05,03,00,04,11.60
2014,05,03,00,05,11.60
2014,05,03,00,06,11.50
2014,05,03,00,07,11.50
2014,05,03,00,08,11.40
2014,05,03,00,09,11.40
2014,05,03,00,10,11.40
2014,05,03,00,11,11.40
2014,05,03,00,12,11.40
2014,05,03,00,13,11.40
2014,05,03,00,14,11.40
2014,05,03,00,15,11.40
2014,05,03,00,16,11.30
2014,05,03,00,17,11.30
2014,05,03,00,18,11.30
2014,05,03,00,19,11.30
2014,05,03,00,20,11.30
2014,05,03,00,21,11.30
2014,05,03,00,22,11.30
2014,05,03,00,23,11.30
2014,05,03,00,24,11.30
2014,05,03,00,25,11.20
2014,05,03,00,26,11.20
2014,05,03,00,27,11.20
2014,05,03,00,28,11.20
2014,05,03,00,29,11.20
2014,05,03,00,30,11.20
2014,05,03,00,31,11.20
2014,05,03,00,32,11.20
2014,05,03,00,33,11.20
2014,05,03,00,34,11.10
2014,05,03,00,35,11.10
2014,05,03,00,36,11.10
2014,05,03,00,37,11.10
2014,05,03,00,38,11.10
2014,05,03,00,39,11.10
2014,05,03,00,40,11.10
2014,05,03,00,41,11.10
2014,05,03,00,42,11.10
2014,05,03,00,43,11.10
2014,05,03,00,44,11.10
2014,05,03,00,45,11.10
2014,05,03,00,46,11.10
2014,05,03,00,47,11.10
2014,05,03,00,48,11.10
2014,05,03,00,49,11.10
2014,05,03,00,50,11.10
2014,05,03,00,51,11.10
2014,05,03,00,52,11.10
2014,05,03,00,53,11.10
2014,05,03,00,54,11.10
2014,05,03,00,55,11.10
2014,05,03,00,56,11.10
2014,05,03,00,57,11.10
2014,05,03,00,58,11.10
2014,05,03,00,59,11.10
2014,05,03,01,00,11.10
2014,05,03,01,01,11.10
2014,05,03,01,02,11.10
2014,05,03,01,03,11.10
2014,05,03,01,04,11.10
2014,05,03,01,05,11.10
2014,05,03,01,06,11.10
2014,05,03,01,07,11.10
2014,05,03,01,08,11.10
2014,05,03,01,09,11.10
2014,05,03,01,10,11.00
2014,05,03,01,11,11.00
2014,05,03,01,12,11.00
2014,05,03,01,13,11.00
2014,05,03,01,14,11.00
2014,05,03,01,15,11.00
2014,05,03,01,16,11.00
2014,05,03,01,17,11.00
2014,05,03,01,18,11.00
2014,05,03,01,19,11.00
2014,05,03,01,20,11.00
2014,05,03,01,21,11.00
2014,05,03,01,22,11.00
2014,05,03,01,23,10.90
2014,05,03,01,24,11.00
2014,05,03,01,25,11.00
2014,05,03,01,26,10.90
2014,05,03,01,27,10.90
2014,05,03,01,28,10.90
2014,05,03,01,29,10.90
2014,05,03,01,30,10.90
2014,05,03,01,31,10.90
2014,05,03,01,32,10.90
2014,05,03,01,33,10.90
2014,05,03,01,34,10.90
2014,05,03,01,35,10.90
2014,05,03,01,36,10.90
2014,05,03,01,37,10.90
2014,05,03,01,38,10.90
2014,05,03,01,39,10.90
2014,05,03,01,40,10.90
2014,05,03,01,41,10.90
2014,05,03,01,42,10.90
2014,05,03,01,43,10.80
2014,05,03,01,44,10.80
2014,05,03,01,45,10.80
2014,05,03,01,46,10.80
2014,05,03,01,47,10.80
2014,05,03,01,48,10.80
2014,05,03,01,49,10.80
2014,05,03,01,50,10.80
2014,05,03,01,51,10.90
2014,05,03,01,52,10.90
2014,05,03,01,53,10.90
2014,05,03,01,54,10.90
2014,05,03,01,55,10.90
2014,05,03,01,56,10.90
2014,05,03,01,57,10.90
2014,05,03,01,58,10.90
2014,05,03,01,59,10.90
2014,05,03,02,00,10.90
2014,05,03,02,01,10.90
2014,05,03,02,02,10.90
2014,05,03,02,03,10.90
2014,05,03,02,04,10.80
2014,05,03,02,05,10.80
2014,05,03,02,06,10.90
2014,05,03,02,07,10.80
2014,05,03,02,08,10.80
2014,05,03,02,09,10.80
2014,05,03,02,10,10.80
2014,05,03,02,11,10.80
2014,05,03,02,12,10.80
2014,05,03,02,13,10.80
2014,05,03,02,14,10.80
2014,05,03,02,15,10.80
2014,05,03,02,16,10.80
2014,05,03,02,17,10.80
2014,05,03,02,18,10.80
2014,05,03,02,19,10.80
2014,05,03,02,20,10.80
2014,05,03,02,21,10.80
2014,05,03,02,22,10.80
2014,05,03,02,23,10.80
2014,05,03,02,24,10.80
2014,05,03,02,25,10.80
2014,05,03,02,26,10.80
2014,05,03,02,27,10.80
2014,05,03,02,28,10.80
2014,05,03,02,29,10.80
2014,05,03,02,30,10.80
2014,05,03,02,31,10.80
2014,05,03,02,32,10.80
2014,05,03,02,33,10.80
2014,05,03,02,34,10.80
2014,05,03,02,35,10.70
2014,05,03,02,36,10.70
2014,05,03,02,37,10.70
2014,05,03,02,38,10.70
2014,05,03,02,39,10.70
2014,05,03,02,40,10.70
2014,05,03,02,41,10.70
2014,05,03,02,42,10.70
2014,05,03,02,43,10.70
2014,05,03,02,44,10.70
2014,05,03,02,45,10.70
2014,05,03,02,46,10.70
2014,05,03,02,47,10.70
2014,05,03,02,48,10.70
2014,05,03,02,49,10.70
2014,05,03,02,50,10.70
2014,05,03,02,51,10.70
2014,05,03,02,52,10.70
2014,05,03,02,53,10.70
2014,05,03,02,54,10.70
2014,05,03,02,55,10.70
2014,05,03,02,56,10.70
2014,05,03,02,57,10.70
2014,05,03,02,58,10.60
2014,05,03,02,59,10.60
2014,05,03,03,00,10.60
2014,05,03,03,01,10.60
2014,05,03,03,02,10.60
2014,05,03,03,03,10.60
2014,05,03,03,04,10.60
2014,05,03,03,05,10.60
2014,05,03,03,06,10.60
2014,05,03,03,07,10.60
2014,05,03,03,08,10.60
2014,05,03,03,09,10.60
2014,05,03,03,10,10.60
2014,05,03,03,11,10.60
2014,05,03,03,12,10.60
2014,05,03,03,13,10.50
2014,05,03,03,14,10.50
2014,05,03,03,15,10.50
2014,05,03,03,16,10.50
2014,05,03,03,17,10.50
2014,05,03,03,18,10.50
2014,05,03,03,19,10.40
2014,05,03,03,20,10.50
2014,05,03,03,21,10.50
2014,05,03,03,22,10.50
2014,05,03,03,23,10.50
2014,05,03,03,24,10.50
2014,05,03,03,25,10.50
2014,05,03,03,26,10.60
2014,05,03,03,27,10.60
2014,05,03,03,28,10.60
2014,05,03,03,29,10.60
2014,05,03,03,30,10.60
2014,05,03,03,31,10.60
2014,05,03,03,32,10.70
2014,05,03,03,33,10.70
2014,05,03,03,34,10.70
2014,05,03,03,35,10.70
2014,05,03,03,36,10.70
2014,05,03,03,37,10.70
2014,05,03,03,38,10.70
2014,05,03,03,39,10.70
2014,05,03,03,40,10.70
2014,05,03,03,41,10.70
2014,05,03,03,42,10.80
2014,05,03,03,43,10.80
2014,05,03,03,44,10.80
2014,05,03,03,45,10.80
2014,05,03,03,46,10.80
2014,05,03,03,47,10.80
2014,05,03,03,48,10.80
2014,05,03,03,49,10.80
2014,05,03,03,50,10.70
2014,05,03,03,51,10.70
2014,05,03,03,52,10.70
2014,05,03,03,53,10.70
2014,05,03,03,54,10.70
2014,05,03,03,55,10.70
2014,05,03,03,56,10.70
2014,05,03,03,57,10.70
2014,05,03,03,58,10.70
2014,05,03,03,59,10.70
2014,05,03,04,00,10.70
2014,05,03,04,01,10.70
2014,05,03,04,02,10.70
2014,05,03,04,03,10.70
2014,05,03,04,04,10.70
2014,05,03,04,05,10.70
2014,05,03,04,06,10.70
2014,05,03,04,07,10.70
2014,05,03,04,08,10.70
2014,05,03,04,09,10.70
2014,05,03,04,10,10.80
2014,05,03,04,11,10.80
2014,05,03,04,12,10.80
2014,05,03,04,13,10.80
2014,05,03,04,14,10.80
2014,05,03,04,15,10.80
2014,05,03,04,16,10.80
2014,05,03,04,17,10.80
2014,05,03,04,18,10.80
2014,05,03,04,19,10.80
2014,05,03,04,20,10.80
2014,05,03,04,21,10.80
2014,05,03,04,22,10.80
2014,05,03,04,23,10.70
2014,05,03,04,24,10.70
2014,05,03,04,25,10.70
2014,05,03,04,26,10.70
2014,05,03,04,27,10.70
2014,05,03,04,28,10.70
2014,05,03,04,29,10.70
2014,05,03,04,30,10.70
2014,05,03,04,31,10.60
2014,05,03,04,32,10.60
2014,05,03,04,33,10.60
2014,05,03,04,34,10.60
2014,05,03,04,35,10.70
2014,05,03,04,36,10.70
2014,05,03,04,37,10.70
2014,05,03,04,38,10.70
2014,05,03,04,39,10.70
2014,05,03,04,40,10.70
2014,05,03,04,41,10.70
2014,05,03,04,42,10.70
2014,05,03,04,43,10.70
2014,05,03,04,44,10.70
2014,05,03,04,45,10.70
2014,05,03,04,46,10.70
2014,05,03,04,47,10.70
2014,05,03,04,48,10.70
2014,05,03,04,49,10.80
2014,05,03,04,50,10.80
2014,05,03,04,51,10.80
2014,05,03,04,52,10.80
2014,05,03,04,53,10.80
2014,05,03,04,54,10.80
2014,05,03,04,55,10.80
2014,05,03,04,56,10.80
2014,05,03,04,57,10.80
2014,05,03,04,58,10.80
2014,05,03,04,59,10.80
2014,05,03,05,00,10.80
2014,05,03,05,01,10.80
2014,05,03,05,02,10.80
2014,05,03,05,03,10.80
2014,05,03,05,04,10.80
2014,05,03,05,05,10.80
2014,05,03,05,06,10.90
2014,05,03,05,07,10.90
2014,05,03,05,08,10.90
2014,05,03,05,09,10.90
2014,05,03,05,10,10.90
2014,05,03,05,11,10.90
2014,05,03,05,12,10.90
2014,05,03,05,13,10.90
2014,05,03,05,14,10.90
2014,05,03,05,15,10.90
2014,05,03,05,16,10.90
2014,05,03,05,17,10.90
2014,05,03,05,18,10.90
2014,05,03,05,19,10.90
2014,05,03,05,20,10.90
2014,05,03,05,21,10.90
2014,05,03,05,22,10.90
2014,05,03,05,23,10.90
2014,05,03,05,24,10.90
2014,05,03,05,25,10.90
2014,05,03,05,26,10.90
2014,05,03,05,27,10.90
2014,05,03,05,28,10.90
2014,05,03,05,29,10.90
2014,05,03,05,30,10.90
2014,05,03,05,31,10.90
2014,05,03,05,32,10.90
2014,05,03,05,33,10.90
2014,05,03,05,34,10.90
2014,05,03,05,35,10.90
2014,05,03,05,36,10.80
2014,05,03,05,37,10.80
2014,05,03,05,38,10.80
2014,05,03,05,39,10.80
2014,05,03,05,40,10.80
2014,05,03,05,41,10.80
2014,05,03,05,42,10.80
2014,05,03,05,43,10.80
2014,05,03,05,44,10.80
2014,05,03,05,45,10.80
2014,05,03,05,46,10.80
2014,05,03,05,47,10.80
2014,05,03,05,48,10.80
2014,05,03,05,49,10.80
2014,05,03,05,50,10.80
2014,05,03,05,51,10.80
2014,05,03,05,52,10.80
2014,05,03,05,53,10.70
2014,05,03,05,54,10.70
2014,05,03,05,55,10.70
2014,05,03,05,56,10.70
2014,05,03,05,57,10.70
2014,05,03,05,58,10.70
2014,05,03,05,59,10.70
2014,05,03,06,00,10.70
2014,05,03,06,01,10.70
2014,05,03,06,02,10.70
2014,05,03,06,03,10.70
2014,05,03,06,04,10.70
2014,05,03,06,05,10.60
2014,05,03,06,06,10.60
2014,05,03,06,07,10.60
2014,05,03,06,08,10.50
2014,05,03,06,09,10.50
2014,05,03,06,10,10.40
2014,05,03,06,11,10.40
2014,05,03,06,12,10.30
2014,05,03,06,13,10.30
2014,05,03,06,14,10.30
2014,05,03,06,15,10.20
2014,05,03,06,16,10.20
2014,05,03,06,17,10.20
2014,05,03,06,18,10.20
2014,05,03,06,19,10.20
2014,05,03,06,20,10.10
2014,05,03,06,21,10.10
2014,05,03,06,22,10.10
2014,05,03,06,23,10.10
2014,05,03,06,24,10.10
2014,05,03,06,25,10.10
2014,05,03,06,26,10.10
2014,05,03,06,27,10.10
2014,05,03,06,28,10.00
2014,05,03,06,29,10.00
2014,05,03,06,30,10.00
2014,05,03,06,31,10.00
2014,05,03,06,32,10.00
2014,05,03,06,33,10.00
2014,05,03,06,34,9.90
2014,05,03,06,35,9.90
2014,05,03,06,36,9.90
2014,05,03,06,37,9.90
2014,05,03,06,38,9.90
2014,05,03,06,39,9.90
2014,05,03,06,40,9.90
2014,05,03,06,41,9.80
2014,05,03,06,42,9.80
2014,05,03,06,43,9.80
2014,05,03,06,44,9.80
2014,05,03,06,45,9.80
2014,05,03,06,46,9.80
2014,05,03,06,47,9.80
2014,05,03,06,48,9.80
2014,05,03,06,49,9.80
2014,05,03,06,50,9.80
2014,05,03,06,51,9.80
2014,05,03,06,52,9.80
2014,05,03,06,53,9.80
2014,05,03,06,54,9.80
2014,05,03,06,55,9.80
2014,05,03,06,56,9.70
2014,05,03,06,57,9.70
2014,05,03,06,58,9.70
2014,05,03,06,59,9.70
2014,05,03,07,00,9.70
2014,05,03,07,01,9.70
2014,05,03,07,02,9.70
2014,05,03,07,03,9.60
2014,05,03,07,04,9.60
2014,05,03,07,05,9.60
2014,05,03,07,06,9.60
2014,05,03,07,07,9.60
2014,05,03,07,08,9.60
2014,05,03,07,09,9.60
2014,05,03,07,10,9.60
2014,05,03,07,11,9.60
2014,05,03,07,12,9.60
2014,05,03,07,13,9.60
2014,05,03,07,14,9.60
2014,05,03,07,15,9.60
2014,05,03,07,16,9.60
2014,05,03,07,17,9.70
2014,05,03,07,18,9.70
2014,05,03,07,19,9.70
2014,05,03,07,20,9.70
2014,05,03,07,21,9.70
2014,05,03,07,22,9.70
2014,05,03,07,23,9.80
2014,05,03,07,24,9.80
2014,05,03,07,25,9.80
2014,05,03,07,26,9.80
2014,05,03,07,27,9.90
2014,05,03,07,28,9.90
2014,05,03,07,29,9.90
2014,05,03,07,30,10.00
2014,05,03,07,31,10.00
2014,05,03,07,32,10.00
2014,05,03,07,33,10.10
2014,05,03,07,34,10.10
2014,05,03,07,35,10.10
2014,05,03,07,36,10.10
2014,05,03,07,37,10.10
2014,05,03,07,38,10.10
2014,05,03,07,39,10.10
2014,05,03,07,40,10.00
2014,05,03,07,41,10.10
2014,05,03,07,42,10.00
2014,05,03,07,43,10.00
2014,05,03,07,44,10.00
2014,05,03,07,45,10.00
2014,05,03,07,46,10.00
2014,05,03,07,47,10.00
2014,05,03,07,48,10.00
2014,05,03,07,49,10.00
2014,05,03,07,50,10.00
2014,05,03,07,51,10.00
2014,05,03,07,52,10.00
2014,05,03,07,53,10.00
2014,05,03,07,54,9.90
2014,05,03,07,55,9.90
2014,05,03,07,56,9.90
2014,05,03,07,57,9.90
2014,05,03,07,58,9.90
2014,05,03,07,59,9.90
2014,05,03,08,00,9.90
2014,05,03,08,01,9.90
2014,05,03,08,02,9.90
2014,05,03,08,03,10.00
2014,05,03,08,04,10.00
2014,05,03,08,05,10.00
2014,05,03,08,06,10.00
2014,05,03,08,07,10.00
2014,05,03,08,08,10.00
2014,05,03,08,09,10.00
2014,05,03,08,10,10.00
2014,05,03,08,11,10.00
2014,05,03,08,12,10.10
2014,05,03,08,13,10.10
2014,05,03,08,14,10.10
2014,05,03,08,15,10.10
2014,05,03,08,16,10.10
2014,05,03,08,17,10.10
2014,05,03,08,18,10.10
2014,05,03,08,19,10.10
2014,05,03,08,20,10.20
2014,05,03,08,21,10.20
2014,05,03,08,22,10.20
2014,05,03,08,23,10.20
2014,05,03,08,24,10.20
2014,05,03,08,25,10.20
2014,05,03,08,26,10.20
2014,05,03,08,27,10.20
2014,05,03,08,28,10.20
2014,05,03,08,29,10.20
2014,05,03,08,30,10.20
2014,05,03,08,31,10.20
2014,05,03,08,32,10.20
2014,05,03,08,33,10.20
2014,05,03,08,34,10.20
2014,05,03,08,35,10.20
2014,05,03,08,36,10.20
2014,05,03,08,37,10.20
2014,05,03,08,38,10.20
2014,05,03,08,39,10.20
2014,05,03,08,40,10.20
2014,05,03,08,41,10.20
2014,05,03,08,42,10.20
2014,05,03,08,43,10.20
2014,05,03,08,44,10.20
2014,05,03,08,45,10.20
2014,05,03,08,46,10.20
2014,05,03,08,47,10.20
2014,05,03,08,48,10.20
2014,05,03,08,49,10.20
2014,05,03,08,50,10.20
2014,05,03,08,51,10.20
2014,05,03,08,52,10.20
2014,05,03,08,53,10.20
2014,05,03,08,54,10.20
2014,05,03,08,55,10.20
2014,05,03,08,56,10.20
2014,05,03,08,57,10.20
2014,05,03,08,58,10.20
2014,05,03,08,59,10.20
2014,05,03,09,00,10.20
2014,05,03,09,01,10.20
2014,05,03,09,02,10.20
2014,05,03,09,03,10.20
2014,05,03,09,04,10.20
2014,05,03,09,05,10.20
2014,05,03,09,06,10.20
2014,05,03,09,07,10.20
2014,05,03,09,08,10.20
2014,05,03,09,09,10.20
2014,05,03,09,10,10.20
2014,05,03,09,11,10.30
2014,05,03,09,12,10.30
2014,05,03,09,13,10.30
2014,05,03,09,14,10.30
2014,05,03,09,15,10.30
2014,05,03,09,16,10.40
2014,05,03,09,17,10.40
2014,05,03,09,18,10.40
2014,05,03,09,19,10.50
2014,05,03,09,20,10.50
2014,05,03,09,21,10.50
2014,05,03,09,22,10.60
2014,05,03,09,23,10.50
2014,05,03,09,24,10.50
2014,05,03,09,25,10.40
2014,05,03,09,26,10.40
2014,05,03,09,27,10.40
2014,05,03,09,28,10.40
2014,05,03,09,29,10.40
2014,05,03,09,30,10.50
2014,05,03,09,31,10.50
2014,05,03,09,32,10.50
2014,05,03,09,33,10.50
2014,05,03,09,34,10.50
2014,05,03,09,35,10.60
2014,05,03,09,36,10.60
2014,05,03,09,37,10.60
2014,05,03,09,38,10.60
2014,05,03,09,39,10.60
2014,05,03,09,40,10.60
2014,05,03,09,41,10.60
2014,05,03,09,42,10.60
2014,05,03,09,43,10.60
2014,05,03,09,44,10.60
2014,05,03,09,45,10.60
2014,05,03,11,26,11.30
2014,05,03,11,27,11.30
2014,05,03,11,28,11.30
2014,05,03,11,29,11.30
2014,05,03,11,30,11.30
2014,05,03,11,31,11.30
2014,05,03,11,32,11.30
2014,05,03,11,33,11.30
2014,05,03,11,34,11.30
2014,05,03,11,35,11.30
2014,05,03,11,36,11.30
2014,05,03,11,37,11.30
2014,05,03,11,38,11.30
2014,05,03,11,39,11.30
2014,05,03,11,40,11.40
2014,05,03,11,41,11.40
2014,05,03,11,42,11.40
2014,05,03,11,43,11.40
2014,05,03,11,44,11.30
2014,05,03,11,45,11.30
2014,05,03,11,46,11.30
2014,05,03,11,47,11.30
2014,05,03,11,48,11.30
2014,05,03,11,49,11.30
2014,05,03,11,50,11.30
2014,05,03,11,51,11.30
2014,05,03,11,52,11.40
2014,05,03,11,53,11.30
2014,05,03,11,54,11.30
2014,05,03,11,55,11.30
2014,05,03,11,56,11.30
2014,05,03,11,57,11.30
2014,05,03,11,58,11.40
2014,05,03,11,59,11.40
2014,05,03,12,00,11.50
2014,05,03,12,01,11.50
2014,05,03,12,02,11.60
2014,05,03,12,03,11.60
2014,05,03,12,04,11.70
2014,05,03,12,05,11.70
2014,05,03,12,06,11.70
2014,05,03,12,07,11.70
2014,05,03,12,08,11.70
2014,05,03,12,09,11.70
2014,05,03,12,10,11.70
2014,05,03,12,11,11.70
2014,05,03,12,12,11.60
2014,05,03,12,13,11.60
2014,05,03,12,14,11.60
2014,05,03,12,15,11.60
2014,05,03,12,16,11.60
2014,05,03,12,17,11.60
2014,05,03,12,18,11.70
2014,05,03,12,19,11.70
2014,05,03,12,20,11.70
2014,05,03,12,21,11.70
2014,05,03,12,22,11.70
2014,05,03,12,23,11.70
2014,05,03,12,24,11.70
2014,05,03,12,25,11.60
2014,05,03,12,26,11.60
2014,05,03,12,27,11.60
2014,05,03,12,28,11.60
2014,05,03,12,29,11.60
2014,05,03,12,30,11.70
2014,05,03,12,31,11.80
2014,05,03,12,32,11.80
2014,05,03,12,33,11.90
2014,05,03,12,34,11.90
2014,05,03,12,35,12.00
2014,05,03,12,36,12.10
2014,05,03,12,37,12.10
2014,05,03,12,38,12.20
2014,05,03,12,39,12.20
2014,05,03,12,40,12.20
2014,05,03,12,41,12.30
2014,05,03,12,42,12.30
2014,05,03,12,43,12.30
2014,05,03,12,44,12.30
2014,05,03,12,45,12.40
2014,05,03,12,46,12.40
2014,05,03,12,47,12.50
2014,05,03,12,48,12.50
2014,05,03,12,49,12.60
2014,05,03,12,50,12.60
2014,05,03,12,51,12.60
2014,05,03,12,52,12.70
2014,05,03,12,53,12.70
2014,05,03,12,54,12.80
2014,05,03,12,55,12.80
2014,05,03,12,56,12.80
2014,05,03,12,57,12.80
2014,05,03,12,58,12.90
2014,05,03,12,59,12.90
2014,05,03,13,00,12.90
2014,05,03,13,01,12.90
2014,05,03,13,02,13.00
2014,05,03,13,03,13.00
2014,05,03,13,04,13.00
2014,05,03,13,05,13.00
2014,05,03,13,06,13.00
2014,05,03,13,07,13.00
2014,05,03,13,08,13.00
2014,05,03,13,09,13.00
2014,05,03,13,10,13.10
2014,05,03,13,11,13.20
2014,05,03,13,12,13.30
2014,05,03,13,13,13.30
2014,05,03,13,14,13.30
2014,05,03,13,15,13.40
2014,05,03,13,16,13.40
2014,05,03,13,17,13.30
2014,05,03,13,18,13.30
2014,05,03,13,19,13.30
2014,05,03,13,20,13.20
2014,05,03,13,21,13.20
2014,05,03,13,22,13.20
2014,05,03,13,23,13.20
2014,05,03,13,24,13.30
2014,05,03,13,25,13.20
2014,05,03,13,26,13.20
2014,05,03,13,27,13.10
2014,05,03,13,28,13.10
2014,05,03,13,29,13.00
2014,05,03,13,30,13.00
2014,05,03,13,31,12.90
2014,05,03,13,32,12.90
2014,05,03,13,33,12.90
2014,05,03,13,34,12.90
2014,05,03,13,35,12.90
2014,05,03,13,36,12.90
2014,05,03,13,37,12.90
2014,05,03,13,38,12.90
2014,05,03,13,39,12.90
2014,05,03,13,40,13.00
2014,05,03,13,41,13.00
2014,05,03,13,42,13.10
2014,05,03,13,43,13.10
2014,05,03,13,44,13.10
2014,05,03,13,45,13.10
2014,05,03,13,46,13.00
2014,05,03,13,47,13.00
2014,05,03,13,48,12.90
2014,05,03,13,49,12.90
2014,05,03,13,50,13.00
2014,05,03,13,51,13.10
2014,05,03,13,52,13.10
2014,05,03,13,53,13.20
2014,05,03,13,54,13.30
2014,05,03,13,55,13.40
2014,05,03,13,56,13.50
2014,05,03,13,57,13.60
2014,05,03,13,58,13.70
2014,05,03,13,59,13.60
2014,05,03,14,00,13.60
2014,05,03,14,01,13.50
2014,05,03,14,02,13.60
2014,05,03,14,03,13.60
2014,05,03,14,04,13.60
2014,05,03,14,05,13.60
2014,05,03,14,06,13.70
2014,05,03,14,07,13.70
2014,05,03,14,08,13.80
2014,05,03,14,09,13.90
2014,05,03,14,10,14.00
2014,05,03,14,11,14.00
2014,05,03,14,12,14.10
2014,05,03,14,13,14.10
2014,05,03,14,14,14.10
2014,05,03,14,15,14.10
2014,05,03,14,16,14.00
2014,05,03,14,17,14.00
2014,05,03,14,18,14.00
2014,05,03,14,19,14.00
2014,05,03,14,20,14.00
2014,05,03,14,21,14.00
2014,05,03,14,22,14.00
2014,05,03,14,23,14.00
2014,05,03,14,24,14.00
2014,05,03,14,25,13.90
2014,05,03,14,26,13.80
2014,05,03,14,27,13.80
2014,05,03,14,28,13.70
2014,05,03,14,29,13.70
2014,05,03,14,30,13.70
2014,05,03,14,31,13.70
2014,05,03,14,32,13.70
2014,05,03,14,33,13.70
2014,05,03,14,34,13.70
2014,05,03,14,35,13.60
2014,05,03,14,36,13.60
2014,05,03,14,37,13.50
2014,05,03,14,38,13.50
2014,05,03,14,39,13.50
2014,05,03,14,40,13.60
2014,05,03,14,41,13.60
2014,05,03,14,42,13.60
2014,05,03,14,43,13.70
2014,05,03,14,44,13.70
2014,05,03,14,45,13.70
2014,05,03,14,46,13.70
2014,05,03,14,47,13.70
2014,05,03,14,48,13.70
2014,05,03,14,49,13.70
2014,05,03,14,50,13.70
2014,05,03,14,51,13.70
2014,05,03,14,52,13.70
2014,05,03,14,53,13.80
2014,05,03,14,54,13.80
2014,05,03,14,55,13.80
2014,05,03,14,56,13.80
2014,05,03,14,57,13.80
2014,05,03,14,58,13.80
2014,05,03,14,59,13.80
2014,05,03,15,00,13.80
2014,05,03,15,01,13.80
2014,05,03,15,02,13.80
2014,05,03,15,03,13.90
2014,05,03,15,04,13.90
2014,05,03,15,05,14.00
2014,05,03,15,06,14.00
2014,05,03,15,07,14.10
2014,05,03,15,08,14.10
2014,05,03,15,09,14.20
2014,05,03,15,10,14.20
2014,05,03,15,11,14.30
2014,05,03,15,12,14.30
2014,05,03,15,13,14.40
2014,05,03,15,14,14.50
2014,05,03,15,15,14.50
2014,05,03,15,16,14.60
2014,05,03,15,17,14.60
2014,05,03,15,18,14.50
2014,05,03,15,19,14.50
2014,05,03,15,20,14.50
2014,05,03,15,21,14.50
2014,05,03,15,22,14.60
2014,05,03,15,23,14.60
2014,05,03,15,24,14.50
2014,05,03,15,25,14.50
2014,05,03,15,26,14.50
2014,05,03,15,27,14.50
2014,05,03,15,28,14.50
2014,05,03,15,29,14.50
2014,05,03,15,30,14.50
2014,05,03,15,31,14.40
2014,05,03,15,32,14.40
2014,05,03,15,33,14.40
2014,05,03,15,34,14.40
2014,05,03,15,35,14.40
2014,05,03,15,36,14.30
2014,05,03,15,37,14.30
2014,05,03,15,38,14.30
2014,05,03,15,39,14.30
2014,05,03,15,40,14.30
2014,05,03,15,41,14.30
2014,05,03,15,42,14.30
2014,05,03,15,43,14.30
2014,05,03,15,44,14.30
2014,05,03,15,45,14.30
2014,05,03,15,46,14.30
2014,05,03,15,47,14.40
2014,05,03,15,48,14.40
2014,05,03,15,49,14.30
2014,05,03,15,50,14.30
2014,05,03,15,51,14.30
2014,05,03,15,52,14.20
2014,05,03,15,53,14.20
2014,05,03,15,54,14.10
2014,05,03,15,55,14.00
2014,05,03,15,56,14.00
2014,05,03,15,57,13.90
2014,05,03,15,58,13.90
2014,05,03,15,59,13.90
2014,05,03,16,00,13.90
2014,05,03,16,01,14.00
2014,05,03,16,02,13.90
2014,05,03,16,03,13.90
2014,05,03,16,04,13.90
2014,05,03,16,05,13.90
2014,05,03,16,06,13.90
2014,05,03,16,07,13.90
2014,05,03,16,08,13.90
2014,05,03,16,09,13.90
2014,05,03,16,10,13.90
2014,05,03,16,11,13.90
2014,05,03,16,12,13.90
2014,05,03,16,13,13.90
2014,05,03,16,14,13.90
2014,05,03,16,15,13.90
2014,05,03,16,16,14.00
2014,05,03,16,17,14.00
2014,05,03,16,18,14.00
2014,05,03,16,19,14.10
2014,05,03,16,20,14.10
2014,05,03,16,21,14.10
2014,05,03,16,22,14.10
2014,05,03,16,23,14.20
2014,05,03,16,24,14.30
2014,05,03,16,25,14.30
2014,05,03,16,26,14.30
2014,05,03,16,27,14.40
2014,05,03,16,28,14.50
2014,05,03,16,29,14.60
2014,05,03,16,30,14.60
2014,05,03,16,31,14.60
2014,05,03,16,32,14.60
2014,05,03,16,33,14.70
2014,05,03,16,34,14.70
2014,05,03,16,35,14.60
2014,05,03,16,36,14.60
2014,05,03,16,37,14.60
2014,05,03,16,38,14.60
2014,05,03,16,39,14.50
2014,05,03,16,40,14.50
2014,05,03,16,41,14.50
2014,05,03,16,42,14.50
2014,05,03,16,43,14.40
2014,05,03,16,44,14.40
2014,05,03,16,45,14.40
2014,05,03,16,46,14.40
2014,05,03,16,47,14.40
2014,05,03,16,48,14.30
2014,05,03,16,49,14.30
2014,05,03,16,50,14.30
2014,05,03,16,51,14.30
2014,05,03,16,52,14.20
2014,05,03,16,53,14.10
2014,05,03,16,54,14.10
2014,05,03,16,55,14.10
2014,05,03,16,56,14.10
2014,05,03,16,57,14.10
2014,05,03,16,58,14.00
2014,05,03,16,59,14.00
2014,05,03,17,00,14.00
2014,05,03,17,01,14.00
2014,05,03,17,02,14.00
2014,05,03,17,03,14.00
2014,05,03,17,04,14.00
2014,05,03,17,05,14.00
2014,05,03,17,06,14.00
2014,05,03,17,07,13.90
2014,05,03,17,08,13.90
2014,05,03,17,09,13.90
2014,05,03,17,10,13.90
2014,05,03,17,11,13.90
2014,05,03,17,12,13.90
2014,05,03,17,13,13.90
2014,05,03,17,14,13.80
2014,05,03,17,15,13.80
2014,05,03,17,16,13.80
2014,05,03,17,17,13.70
2014,05,03,17,18,13.70
2014,05,03,17,19,13.60
2014,05,03,17,20,13.60
2014,05,03,17,21,13.50
2014,05,03,17,22,13.50
2014,05,03,17,23,13.40
2014,05,03,17,24,13.40
2014,05,03,17,25,13.40
2014,05,03,17,26,13.40
2014,05,03,17,27,13.40
2014,05,03,17,28,13.40
2014,05,03,17,29,13.40
2014,05,03,17,30,13.40
2014,05,03,17,31,13.40
2014,05,03,17,32,13.40
2014,05,03,17,33,13.40
2014,05,03,17,34,13.40
2014,05,03,17,35,13.30
2014,05,03,17,36,13.30
2014,05,03,17,37,13.30
2014,05,03,17,38,13.30
2014,05,03,17,39,13.30
2014,05,03,17,40,13.30
2014,05,03,17,41,13.30
2014,05,03,17,42,13.40
2014,05,03,17,43,13.40
2014,05,03,17,44,13.40
2014,05,03,17,45,13.30
2014,05,03,17,46,13.30
2014,05,03,17,47,13.40
2014,05,03,17,48,13.40
2014,05,03,17,49,13.40
2014,05,03,17,50,13.40
2014,05,03,17,51,13.50
2014,05,03,17,52,13.40
2014,05,03,17,53,13.40
2014,05,03,17,54,13.40
2014,05,03,17,55,13.40
2014,05,03,17,56,13.40
2014,05,03,17,57,13.40
2014,05,03,17,58,13.40
2014,05,03,17,59,13.40
2014,05,03,18,00,13.40
2014,05,03,18,01,13.40
2014,05,03,18,02,13.30
2014,05,03,18,03,13.30
2014,05,03,18,04,13.40
2014,05,03,18,05,13.30
2014,05,03,18,06,13.30
2014,05,03,18,07,13.40
2014,05,03,18,08,13.30
2014,05,03,18,09,13.30
2014,05,03,18,10,13.30
2014,05,03,18,11,13.30
2014,05,03,18,12,13.40
2014,05,03,18,13,13.40
2014,05,03,18,14,13.40
2014,05,03,18,15,13.40
2014,05,03,18,16,13.40
2014,05,03,18,17,13.50
2014,05,03,18,18,13.50
2014,05,03,18,19,13.50
2014,05,03,18,20,13.50
2014,05,03,18,21,13.40
2014,05,03,18,22,13.40
2014,05,03,18,23,13.40
2014,05,03,18,24,13.40
2014,05,03,18,25,13.40
2014,05,03,18,26,13.40
2014,05,03,18,27,13.40
2014,05,03,18,28,13.40
2014,05,03,18,29,13.40
2014,05,03,18,30,13.40
2014,05,03,18,31,13.40
2014,05,03,18,32,13.40
2014,05,03,18,33,13.50
2014,05,03,18,34,13.50
2014,05,03,18,35,13.40
2014,05,03,18,36,13.40
2014,05,03,18,37,13.40
2014,05,03,18,38,13.40
2014,05,03,18,39,13.40
2014,05,03,18,40,13.40
2014,05,03,18,41,13.40
2014,05,03,18,42,13.40
2014,05,03,18,43,13.40
2014,05,03,18,44,13.40
2014,05,03,18,45,13.40
2014,05,03,18,46,13.40
2014,05,03,18,47,13.40
2014,05,03,18,48,13.40
2014,05,03,18,49,13.40
2014,05,03,18,50,13.40
2014,05,03,18,51,13.40
2014,05,03,18,52,13.40
2014,05,03,18,53,13.40
2014,05,03,18,54,13.40
2014,05,03,18,55,13.40
2014,05,03,18,56,13.30
2014,05,03,18,57,13.30
2014,05,03,18,58,13.30
2014,05,03,18,59,13.20
2014,05,03,19,00,13.20
2014,05,03,19,01,13.20
2014,05,03,19,02,13.10